CHINASAT 3B

Last updated on Sun Apr 12 2026 00:02:57 GMT+0000 (Coordinated Universal Time)

1 64062U 25106A 26101.69640929 -.00000044 00000+0 00000+0 0 9994 2 64062 0.0412 18.8555 0001344 22.4680 216.6047 1.00271162 3394
UTC large
Height (km)
Speed (km/s)
/
Latitude / Longitude
Inclination (degrees)
Orbital Period (minutes)
Azimuth
Elevation
Range (km)
Doppler Factor

Next 0 passes for location: London (51.5072 / 0.1276)

Sorry there are no passes over London.
CHINASAT 3B